[[{"header":{"parameterUnit":"m.s-1","parameterCategory":1,"la1":30.2991,"la2":30.254,"lo1":-89.0895,"lo2":-89.0444,"dy":0.0017,"dx":0.0017,"nx":28,"ny":28,"refTime":"2024-05-16T09:00:00:Z","depth":0,"parameterNumber":2,"parameterNumberName":"U-component_of_WINDS"},"data":[0,0,0,0,0,0,0,0,0,0,0,0,0,0,0,0,0,0,0,0,0,0,0,0,0,0,0,0,0,0,0,0,0,0,0,0,0,0,0,0,0,0,0,0,0,0,0,0,0,0,0,0,0,0,0,0,0,0,0.3473,0.3472,0,0.3376,0.3375,0.3374,0.3305,0.3305,0.3304,0.3304,0.3203,0.3201,0.3199,0,0,0,0,0,0,0,0,0,0,0,0,0,0.3596,0.3594,0.3473,0.3471,0.347,0.3376,0.3375,0.3373,0.3306,0.3305,0.3304,0.3304,0.3204,0.3201,0.3199,0,0,0,0,0,0,0,0,0,0,0,0,0,0.3525,0.3594,0.3473,0.3425,0.342,0.3376,0.3375,0.3373,0.3306,0.3305,0.3304,0.3303,0.3205,0.3202,0.3198,0.3194,0,0,0.3188,0.3187,0,0,0,0,0,0,0,0,0.3529,0.3521,0.3433,0.3428,0.3422,0.3352,0.3381,0.3313,0.3306,0.3349,0.3304,0.3303,0.3253,0.3246,0.3229,0.3189,0.3185,0.3188,0.3186,0.3185,0.3184,0,0,0,0,0,0,0,0.3534,0.3525,0.3434,0.3432,0.3425,0.3408,0.3397,0.3368,0.3307,0.3345,0.334,0.333,0.325,0.3233,0.3227,0.3183,0.3188,0.3185,0.3183,0.3182,0.3133,0.3134,0,0,0,0,0,0,0.3547,0.3529,0.3437,0.3431,0.3475,0.3406,0.3394,0.3375,0.3307,0.3296,0.333,0.3327,0.3239,0.323,0.3223,0.3212,0.3185,0.3181,0.318,0.3132,0.3133,0.3134,0,0,0,0,0,0,0.355,0.354,0.3441,0.3479,0.3465,0.3405,0.3385,0.3374,0.3356,0.3296,0.3284,0.3324,0.3238,0.3227,0.3201,0.3207,0.318,0.3177,0.3131,0.3132,0.3133,0.3191,0,0,0,0,0,0,0.3554,0.3541,0.3539,0.3479,0.3463,0.3422,0.3385,0.3373,0.3351,0.3346,0.3287,0.3276,0.3236,0.3207,0.3198,0.3202,0.3174,0.3131,0.3132,0.3133,0.3189,0.3194,0.3199,0,0,0,0,0,0.3559,0.356,0.354,0.3529,0.346,0.3423,0.3414,0.3368,0.3352,0.3349,0.331,0.3278,0.3208,0.3205,0.3194,0.3198,0.313,0.3132,0.3133,0.3186,0.3193,0.3199,0,0,0,0,0,0,0.3622,0.3551,0.3528,0.351,0.3473,0.3412,0.3407,0.3377,0.3344,0.334,0.3284,0.3272,0.3251,0.3222,0.3219,0.3189,0.3165,0.3165,0.3209,0.3215,0.322,0.3227,0.3172,0,0,0,0,0,0.3634,0.361,0.3549,0.3539,0.3522,0.3468,0.345,0.3418,0.3377,0.3361,0.332,0.3281,0.325,0.3231,0.3199,0.3184,0.3169,0.3181,0.3187,0.3191,0.3191,0.3179,0.3184,0.3139,0.3139,0.3139,0,0,0.3658,0.3616,0.3605,0.355,0.3518,0.3494,0.3455,0.3431,0.3413,0.3357,0.333,0.3299,0.3251,0.3231,0.3219,0.3205,0.32,0.3193,0.3197,0.3195,0.3182,0.3186,0.319,0.314,0.314,0.3139,0,0,0.3689,0.3656,0.3643,0.3612,0.3563,0.3527,0.3524,0.3467,0.3444,0.3416,0.3373,0.335,0.3298,0.3266,0.3243,0.3261,0.323,0.3253,0.328,0.3269,0.3272,0.3275,0.3281,0.3284,0.3253,0.3253,0.3253,0,0.3725,0.3688,0.364,0.3619,0.3596,0.3545,0.3531,0.3502,0.3446,0.3431,0.3416,0.335,0.3314,0.3285,0.3289,0.3272,0.3266,0.3259,0.3276,0.3278,0.328,0.3285,0.3287,0.3256,0.3256,0.3255,0.3255,0,0.3734,0.3709,0.3704,0.3651,0.3627,0.361,0.3559,0.354,0.351,0.3476,0.3447,0.3403,0.3361,0.3351,0.3322,0.3317,0.331,0.3287,0.3261,0.3288,0.3292,0.3293,0.326,0.3259,0.3258,0.3258,0,0,0.3802,0.3723,0.3722,0.3697,0.3639,0.3619,0.3598,0.3557,0.3542,0.3505,0.3486,0.3443,0.3421,0.3394,0.3361,0.3352,0.3367,0.3329,0.3327,0.3337,0.3358,0.3375,0.3378,0.3347,0.3347,0.3347,0.3361,0,0.3824,0.3786,0.3742,0.3718,0.3693,0.3644,0.3626,0.3589,0.3556,0.3529,0.3492,0.3462,0.3436,0.3419,0.3408,0.3368,0.3371,0.3367,0.3327,0.3326,0.334,0.338,0.3398,0.3414,0.3363,0.3363,0.3363,0,0.3845,0.381,0.3784,0.3728,0.3716,0.3701,0.3659,0.3635,0.3591,0.3567,0.3538,0.3502,0.3476,0.3455,0.3419,0.3417,0.3398,0.3376,0.3375,0.3369,0.3346,0.3374,0.3418,0.342,0.3365,0.3364,0.3364,0,0.3896,0.3843,0.382,0.38,0.3734,0.3725,0.3697,0.3652,0.363,0.3593,0.3578,0.3539,0.3518,0.3488,0.3442,0.343,0.341,0.3385,0.3389,0.339,0.3386,0.3387,0.3427,0.3376,0.3376,0.3376,0.3376,0,0.3924,0.391,0.3842,0.3828,0.381,0.3759,0.3743,0.371,0.3671,0.3648,0.3604,0.3584,0.3525,0.3497,0.3461,0.3436,0.3427,0.3406,0.3397,0.341,0.3412,0.3396,0.3394,0.3377,0.3377,0.3376,0.3376,0,0.3978,0.3932,0.3904,0.3844,0.3829,0.3818,0.3766,0.375,0.3714,0.3687,0.3677,0.3621,0.3587,0.3538,0.3488,0.3464,0.3444,0.3429,0.3459,0.3453,0.3459,0.3459,0.349,0.3491,0.3441,0.3441,0.3442,0,0.3999,0.3987,0.3926,0.3908,0.3882,0.3854,0.3831,0.3781,0.3759,0.3707,0.3697,0.3659,0.3626,0.3573,0.3527,0.3488,0.3472,0.3485,0.3466,0.3479,0.347,0.3472,0.3469,0.349,0.349,0.3491,0.3492,0,0.404,0.4018,0.3988,0.3949,0.3923,0.389,0.3855,0.3843,0.3784,0.3762,0.3726,0.3701,0.365,0.3612,0.3568,0.3538,0.3505,0.3498,0.3497,0.351,0.3527,0.3517,0.3471,0.3498,0.3497,0.3497,0.3496,0.3496,0.4077,0.4064,0.4019,0.3986,0.3954,0.3922,0.3904,0.3866,0.3835,0.3791,0.3762,0.3728,0.3683,0.3619,0.3591,0.3562,0.3549,0.3547,0.3547,0.3547,0.3551,0.3533,0.3554,0.3554,0.3554,0.3554,0.3553,0,0.4115,0.4084,0.4054,0.4006,0.398,0.3952,0.3911,0.3891,0.3862,0.3823,0.3791,0.375,0.3713,0.3664,0.3624,0.361,0.3594,0.3601,0.3601,0.3595,0.3566,0.3571,0.3615,0.3615,0.3615,0.3615,0.3615,0.3615,0.4132,0.4107,0.408,0.4039,0.4007,0.3973,0.3952,0.3922,0.389,0.3846,0.3816,0.3784,0.3741,0.3697,0.3662,0.3648,0.3635,0.3647,0.3628,0.3602,0.3597,0.3591,0.3595,0.3644,0.3644,0.3659,0.3659,0.3659]},{"header":{"parameterUnit":"m.s-1","parameterCategory":1,"la1":30.2991,"la2":30.254,"lo1":-89.0895,"lo2":-89.0444,"dy":0.0017,"dx":0.0017,"nx":28,"ny":28,"refTime":"2024-05-16T09:00:00:Z","depth":0,"parameterNumber":3,"parameterNumberName":"V-component_of_WINDS"},"data":[0,0,0,0,0,0,0,0,0,0,0,0,0,0,0,0,0,0,0,0,0,0,0,0,0,0,0,0,0,0,0,0,0,0,0,0,0,0,0,0,0,0,0,0,0,0,0,0,0,0,0,0,0,0,0,0,0,0,7.2342,7.2343,0,7.2392,7.2392,7.2393,7.2351,7.235,7.2348,7.2346,7.2391,7.2394,7.2396,0,0,0,0,0,0,0,0,0,0,0,0,0,7.2207,7.2209,7.2342,7.2343,7.2344,7.2392,7.2392,7.2393,7.2352,7.235,7.2347,7.2346,7.239,7.2393,7.2397,0,0,0,0,0,0,0,0,0,0,0,0,0,7.2262,7.221,7.2342,7.2329,7.2328,7.2392,7.2392,7.2393,7.2352,7.235,7.2347,7.2345,7.2389,7.2393,7.2397,7.2474,0,0,7.241,7.2412,0,0,0,0,0,0,0,0,7.2259,7.2267,7.233,7.233,7.2329,7.2363,7.2361,7.242,7.2353,7.2343,7.2346,7.2343,7.2383,7.2388,7.2402,7.2477,7.2478,7.241,7.2413,7.2415,7.2416,0,0,0,0,0,0,0,7.2255,7.2264,7.2362,7.2331,7.2331,7.2319,7.2324,7.2372,7.2377,7.2343,7.2341,7.2347,7.2382,7.2399,7.2403,7.2479,7.241,7.2414,7.2416,7.2418,7.2619,7.2622,0,0,0,0,0,0,7.2253,7.2261,7.236,7.2363,7.2287,7.2323,7.2329,7.2355,7.2376,7.2377,7.235,7.2345,7.2393,7.2398,7.2405,7.2497,7.2415,7.2418,7.2421,7.2617,7.262,7.2623,0,0,0,0,0,0,7.225,7.2262,7.2358,7.2312,7.2323,7.2328,7.2358,7.2357,7.2373,7.2381,7.2381,7.2366,7.2391,7.2399,7.2458,7.2498,7.242,7.2424,7.2613,7.2618,7.2622,7.2682,0,0,0,0,0,0,7.2247,7.2262,7.2292,7.2313,7.2326,7.2412,7.236,7.236,7.2381,7.2376,7.2396,7.2396,7.2389,7.2452,7.2462,7.2502,7.2427,7.261,7.2615,7.262,7.2677,7.2688,7.2698,0,0,0,0,0,7.2242,7.2306,7.2294,7.2306,7.2364,7.2415,7.2422,7.2414,7.2385,7.2415,7.242,7.2396,7.2492,7.2458,7.2469,7.2511,7.2607,7.2614,7.262,7.2672,7.2686,7.2697,0,0,0,0,0,0,7.2287,7.2308,7.2295,7.2368,7.239,7.2408,7.2445,7.2429,7.2459,7.2452,7.244,7.2445,7.2507,7.2515,7.2477,7.2588,7.2545,7.2553,7.258,7.2593,7.2604,7.26,7.2431,0,0,0,0,0,7.2306,7.2347,7.2363,7.2425,7.2437,7.244,7.2461,7.2454,7.2475,7.2484,7.2493,7.2513,7.2548,7.2571,7.2604,7.2678,7.2681,7.2712,7.2723,7.2731,7.2739,7.2779,7.2793,7.2644,7.2644,7.2644,0,0,7.2344,7.2361,7.2387,7.2435,7.2451,7.2492,7.2448,7.2493,7.2523,7.249,7.2547,7.2555,7.2577,7.2644,7.2674,7.2652,7.2781,7.2739,7.2746,7.2749,7.2787,7.2801,7.2813,7.2648,7.2648,7.2647,0,0,7.2436,7.2453,7.2508,7.2526,7.2552,7.2553,7.2567,7.2587,7.2592,7.2649,7.2626,7.266,7.2721,7.2737,7.2754,7.2854,7.2833,7.2864,7.2919,7.2958,7.297,7.298,7.3015,7.3028,7.2872,7.2872,7.2872,0,7.248,7.2543,7.2537,7.2585,7.2606,7.2581,7.2635,7.2652,7.2687,7.2701,7.2677,7.2753,7.2766,7.2837,7.2862,7.2876,7.289,7.2861,7.2969,7.2979,7.2989,7.3022,7.3036,7.2876,7.2875,7.2875,7.2875,0,7.2596,7.264,7.2681,7.2718,7.2744,7.2794,7.2794,7.2821,7.2812,7.2815,7.2874,7.2889,7.2924,7.2941,7.2931,7.301,7.2996,7.2971,7.2927,7.3007,7.3038,7.3051,7.2881,7.288,7.2879,7.2878,0,0,7.2716,7.2751,7.2765,7.2782,7.281,7.2843,7.2893,7.293,7.2953,7.2978,7.3018,7.3071,7.3048,7.3067,7.3058,7.3093,7.3171,7.3063,7.3064,7.3083,7.326,7.3279,7.3294,7.3158,7.316,7.3162,7.3258,0,7.2808,7.2897,7.2893,7.2975,7.3016,7.2993,7.3036,7.3057,7.3062,7.3096,7.31,7.3138,7.3105,7.3116,7.3149,7.3155,7.3206,7.3148,7.3194,7.3196,7.3189,7.331,7.333,7.3419,7.327,7.3272,7.3274,0,7.2928,7.296,7.3047,7.307,7.3087,7.3126,7.316,7.3193,7.3216,7.3217,7.324,7.3226,7.3275,7.3231,7.3297,7.3258,7.3276,7.3282,7.3285,7.3288,7.3239,7.3316,7.3447,7.3461,7.3293,7.3291,7.329,0,7.3007,7.3071,7.3132,7.3147,7.3176,7.3204,7.3216,7.3237,7.326,7.3289,7.3304,7.3337,7.3355,7.3381,7.3377,7.3345,7.3444,7.34,7.3446,7.3446,7.3467,7.3465,7.3603,7.348,7.348,7.3479,7.3479,0,7.3111,7.3164,7.3168,7.3205,7.3265,7.326,7.3318,7.3327,7.3347,7.3384,7.3366,7.3401,7.3393,7.3428,7.3425,7.348,7.3488,7.349,7.3488,7.3491,7.3491,7.3503,7.3496,7.3483,7.3482,7.3481,7.3481,0,7.3208,7.3213,7.3278,7.33,7.3307,7.335,7.3369,7.3403,7.3407,7.3455,7.3466,7.3471,7.3511,7.351,7.3555,7.3553,7.3621,7.3612,7.3614,7.3612,7.3658,7.3653,7.3807,7.3826,7.3691,7.3693,7.3694,0,7.3274,7.3315,7.3343,7.3369,7.3384,7.3424,7.3448,7.3444,7.347,7.35,7.3531,7.357,7.3601,7.3665,7.3672,7.3706,7.3698,7.375,7.3703,7.3705,7.3699,7.3696,7.37,7.3758,7.376,7.3761,7.3762,0,7.339,7.3391,7.3427,7.3465,7.3495,7.3524,7.3551,7.3572,7.3571,7.36,7.3642,7.3666,7.3713,7.3752,7.3785,7.3796,7.3779,7.3777,7.3789,7.3793,7.3792,7.3793,7.3639,7.3773,7.3772,7.3771,7.3771,7.377,7.3473,7.3509,7.3536,7.3577,7.3597,7.3623,7.3657,7.3667,7.3703,7.3742,7.3737,7.3784,7.3806,7.385,7.3864,7.3899,7.3881,7.3899,7.3903,7.3908,7.3913,7.3787,7.3905,7.3905,7.3905,7.3904,7.3904,0,7.3588,7.3604,7.3643,7.3682,7.3715,7.3699,7.3728,7.3755,7.3798,7.3821,7.3853,7.3901,7.3939,7.395,7.3986,7.4012,7.4005,7.4021,7.4019,7.4022,7.3927,7.3913,7.4027,7.4027,7.4027,7.4027,7.4027,7.4027,7.3652,7.3713,7.3717,7.3787,7.3802,7.385,7.3868,7.3891,7.391,7.3966,7.3998,7.4006,7.4024,7.4062,7.4095,7.4097,7.4111,7.4131,7.413,7.4041,7.4029,7.4017,7.4003,7.4134,7.4134,7.4221,7.4222,7.4223]}]]